This is the latest recevied weather packets stored in our database for station/object W5ADC. If no packets are shown the sender has not sent any weather packets the latest 10 day(s).
| Time | Temp. | Humidity | Pressure | Rain* | Wind** | Luminosity | Snow |
|---|---|---|---|---|---|---|---|
| 1787775909 | 35° C | 49% | 1010.3 hPa | 0 mm | - | 258 W/m² | - |
| 1787775604 | 35° C | 50% | 1010.3 hPa | 0 mm | - | 221 W/m² | - |
| 1787775302 | 35.56° C | 50% | 1010.3 hPa | 0 mm | - | 212 W/m² | - |
| 1787774996 | 35.56° C | 49% | 1010.3 hPa | 0 mm | - | 235 W/m² | - |
| 1787774695 | 35.56° C | 49% | 1010.3 hPa | 0 mm | - | 259 W/m² | - |
| 1787774395 | 35° C | 50% | 1010.3 hPa | 0 mm | - | 248 W/m² | - |
| 1787774090 | 35° C | 50% | 1010.1 hPa | 0 mm | - | 238 W/m² | - |
| 1787773788 | 35° C | 50% | 1010.4 hPa | 0 mm | - | 232 W/m² | - |
| 1787773483 | 35° C | 50% | 1010.3 hPa | 0 mm | - | 225 W/m² | - |
| 1787773179 | 35° C | 49% | 1010.4 hPa | 0 mm | - | 225 W/m² | - |
| 1787772874 | 35° C | 48% | 1010.3 hPa | 0 mm | - | 241 W/m² | - |
| 1787772574 | 35.56° C | 47% | 1010.6 hPa | 0 mm | - | 269 W/m² | - |
| 1787772273 | 35° C | 48% | 1010.6 hPa | 0 mm | - | 372 W/m² | - |
| 1787771971 | 35° C | 47% | 1010.6 hPa | 0 mm | - | 237 W/m² | - |
| 1787771661 | 35° C | 47% | 1010.6 hPa | 0 mm | - | 185 W/m² | - |
| 1787771355 | 35° C | 47% | 1010.7 hPa | 0 mm | - | 154 W/m² | - |
| 1787771050 | 35° C | 47% | 1010.8 hPa | 0 mm | - | 137 W/m² | - |
| 1787770749 | 35° C | 47% | 1010.7 hPa | 0 mm | - | 140 W/m² | - |
| 1787770443 | 35° C | 46% | 1010.6 hPa | 0 mm | - | 161 W/m² | - |
| 1787770142 | 35° C | 46% | 1010.9 hPa | 0 mm | - | 179 W/m² | - |
| 1787769836 | 35° C | 46% | 1010.9 hPa | 0 mm | - | 186 W/m² | - |
| 1787769536 | 35° C | 46% | 1010.9 hPa | 0 mm | - | 187 W/m² | - |
| 1787769230 | 35° C | 46% | 1010.7 hPa | 0 mm | - | 189 W/m² | - |
| 1787768930 | 35° C | 46% | 1010.9 hPa | 0 mm | - | 205 W/m² | - |
| 1787768626 | 35° C | 46% | 1011 hPa | 0 mm | - | 221 W/m² | - |
* Rain latest hour (hover to see other rain measurements)
** Current wind speed in m/s (hover to see current wind gust speed)